This demonstration page uses our WeatherBlox Daily Observations layout. Learn more.

Left ArrowRight Arrow

Hourly Observations for May 17, 2022

Temp ( °F °C ) Dew Point ( °F °C ) Humidity (%) Winds ( mph kmh ) Pressure ( in mb ) Visibility ( mi km ) Precip ( " mm )
12:53 am 00:53 Clear 56 13.3 53 11.7 90 90 Calm 29.92 1013 10 16 0.00 0.00
1:53 am 01:53 Clear 54 12.2 52 11.1 93 93 Calm 29.91 1013 10 16 0.00 0.00
2:53 am 02:53 Clear 54 12.2 51 10.6 90 90 Calm 29.91 1013 10 16 0.00 0.00
3:53 am 03:53 Clear 53 11.7 50 10 89 89 W 3 6 29.91 1013 10 16 0.00 0.00
4:53 am 04:53 Clear 52 11.1 49 9.4 89 89 Calm 29.92 1013 10 16 0.00 0.00
5:53 am 05:53 Clear 51 10.6 48 8.9 89 89 Calm 29.93 1014 10 16 0.00 0.00
6:53 am 06:53 Sunny 51 10.6 48 8.9 89 89 Calm 29.95 1014 10 16 0.00 0.00
7:53 am 07:53 Sunny 59 15 52 11.1 78 78 Calm 29.96 1015 10 16 0.00 0.00
8:53 am 08:53 Sunny 63 17.2 51 10.6 65 65 W 3 6 29.97 1015 10 16 0.00 0.00
9:53 am 09:53 Sunny 68 20 54 12.2 61 61 VRB 3 6 29.99 1016 10 16 0.00 0.00
10:53 am 10:53 Sunny 73 22.8 52 11.1 48 48 WNW 7 11 30.00 1016 10 16 0.00 0.00
11:53 am 11:53 Sunny 75 23.9 47 8.3 37 37 W 13 20 30.01 1016 10 16 0.00 0.00
12:53 pm 12:53 Sunny with Light Rain 77 25 48 8.9 36 36 WNW 15 24 30.01 1016 10 16 0.00 0.00
1:53 pm 13:53 Sunny 78 25.6 47 8.3 33 33 NNW 15 24 30.00 1016 10 16 0.00 0.00
2:53 pm 14:53 Mostly Sunny 79 26.1 48 8.9 34 34 WNW 12 19 29.99 1016 10 16 0.00 0.00
3:53 pm 15:53 Sunny 79 26.1 46 7.8 31 31 WNW 10 17 29.99 1016 10 16 0.00 0.00
4:53 pm 16:53 Sunny 79 26.1 46 7.8 31 31 WNW 10 17 29.98 1015 10 16 0.00 0.00
5:53 pm 17:53 Sunny 78 25.6 47 8.3 33 33 NW 8 13 29.98 1015 10 16 0.00 0.00
6:53 pm 18:53 Sunny 77 25 46 7.8 33 33 NW 9 15 29.97 1015 10 16 0.00 0.00
7:53 pm 19:53 Partly Cloudy 75 23.9 47 8.3 37 37 NNW 5 7 29.98 1015 10 16 0.00 0.00
8:53 pm 20:53 Clear 66 18.9 50 10 56 56 N 5 7 30.00 1016 10 16 0.00 0.00
9:53 pm 21:53 Clear 64 17.8 50 10 60 60 Calm 30.00 1016 10 16 0.00 0.00
10:53 pm 22:53 Clear 59 15 52 11.1 78 78 Calm 30.01 1016 10 16 0.00 0.00
11:53 pm 23:53 Mostly Cloudy 58 14.4 53 11.7 84 84 Calm 30.03 1017 10 16 0.00 0.00

Powered by AerisWeather